Time,TemperatureF,DewpointF,PressureIn,WindDirection,WindDirectionDegrees,WindSpeedMPH,WindSpeedGustMPH,Humidity,HourlyPrecipIn,Conditions,Clouds,dailyrainin,SoftwareType,DateUTC
2013-02-02 00:10:00,48.5,35.0,30.22,South,175,0.0,-999.0,60,-99.99,,,0.00,weatherlink.com 1.10,2013-02-02 06:10:00,
2013-02-02 00:25:00,48.5,35.0,30.22,South,175,0.0,-999.0,61,-99.99,,,0.00,weatherlink.com 1.10,2013-02-02 06:25:00,
2013-02-02 00:40:00,47.9,35.0,30.21,South,175,0.0,-999.0,62,-99.99,,,0.00,weatherlink.com 1.10,2013-02-02 06:40:00,
2013-02-02 00:55:00,47.0,35.0,30.21,South,175,0.0,-999.0,63,-99.99,,,0.00,weatherlink.com 1.10,2013-02-02 06:55:00,
2013-02-02 01:10:00,46.6,35.0,30.21,South,175,0.0,-999.0,64,-99.99,,,0.00,weatherlink.com 1.10,2013-02-02 07:10:00,
2013-02-02 01:25:00,46.3,35.0,30.21,South,175,0.0,-999.0,64,-99.99,,,0.00,weatherlink.com 1.10,2013-02-02 07:25:00,
2013-02-02 01:40:00,46.0,35.0,30.21,South,175,0.0,-999.0,65,-99.99,,,0.00,weatherlink.com 1.10,2013-02-02 07:40:00,
2013-02-02 01:55:00,46.0,35.0,30.21,South,175,0.0,-999.0,66,-99.99,,,0.00,weatherlink.com 1.10,2013-02-02 07:55:00,
2013-02-02 02:10:00,46.1,36.0,30.21,South,175,0.0,-999.0,67,-99.99,,,0.00,weatherlink.com 1.10,2013-02-02 08:10:00,
2013-02-02 02:25:00,46.3,36.0,30.21,South,175,0.0,-999.0,67,-99.99,,,0.00,weatherlink.com 1.10,2013-02-02 08:25:00,
2013-02-02 02:40:00,46.4,36.0,30.21,South,175,0.0,-999.0,67,-99.99,,,0.00,weatherlink.com 1.10,2013-02-02 08:40:00,
2013-02-02 02:55:00,45.8,36.0,30.21,South,175,0.0,-999.0,68,-99.99,,,0.00,weatherlink.com 1.10,2013-02-02 08:55:00,
2013-02-02 03:10:00,44.5,35.0,30.21,South,175,0.0,-999.0,69,-99.99,,,0.00,weatherlink.com 1.10,2013-02-02 09:10:00,
2013-02-02 03:25:00,43.9,35.0,30.20,South,175,0.0,-999.0,71,-99.99,,,0.00,weatherlink.com 1.10,2013-02-02 09:25:00,
2013-02-02 03:40:00,44.7,36.0,30.20,South,175,0.0,-999.0,71,-99.99,,,0.00,weatherlink.com 1.10,2013-02-02 09:40:00,
2013-02-02 03:55:00,43.8,35.0,30.20,South,175,0.0,-999.0,72,-99.99,,,0.00,weatherlink.com 1.10,2013-02-02 09:55:00,
2013-02-02 04:10:00,43.6,35.0,30.20,South,175,0.0,-999.0,73,-99.99,,,0.00,weatherlink.com 1.10,2013-02-02 10:10:00,
2013-02-02 04:25:00,44.5,37.0,30.21,South,175,0.0,-999.0,74,-99.99,,,0.00,weatherlink.com 1.10,2013-02-02 10:25:00,
2013-02-02 04:40:00,44.5,37.0,30.20,South,175,0.0,-999.0,74,-99.99,,,0.00,weatherlink.com 1.10,2013-02-02 10:40:00,
2013-02-02 04:55:00,44.6,37.0,30.20,South,175,0.0,-999.0,75,-99.99,,,0.00,weatherlink.com 1.10,2013-02-02 10:55:00,
2013-02-02 05:10:00,45.0,38.0,30.21,South,175,0.0,-999.0,75,-99.99,,,0.00,weatherlink.com 1.10,2013-02-02 11:10:00,
2013-02-02 05:25:00,45.0,38.0,30.21,South,175,0.0,-999.0,76,-99.99,,,0.00,weatherlink.com 1.10,2013-02-02 11:25:00,
2013-02-02 05:40:00,44.5,37.0,30.21,South,175,0.0,-999.0,76,-99.99,,,0.00,weatherlink.com 1.10,2013-02-02 11:40:00,
2013-02-02 05:55:00,43.9,37.0,30.21,South,175,0.0,-999.0,76,-99.99,,,0.00,weatherlink.com 1.10,2013-02-02 11:55:00,
2013-02-02 06:10:00,40.8,34.0,30.21,South,175,0.0,-999.0,77,-99.99,,,0.00,weatherlink.com 1.10,2013-02-02 12:10:00,
2013-02-02 06:26:00,40.6,34.0,30.21,South,175,0.0,-999.0,78,-99.99,,,0.00,weatherlink.com 1.10,2013-02-02 12:26:00,
2013-02-02 06:41:00,41.1,35.0,30.21,South,175,0.0,-999.0,79,-99.99,,,0.00,weatherlink.com 1.10,2013-02-02 12:41:00,
2013-02-02 06:56:00,40.4,34.0,30.22,South,175,0.0,-999.0,79,-99.99,,,0.00,weatherlink.com 1.10,2013-02-02 12:56:00,
2013-02-02 07:11:00,41.0,35.0,30.22,South,175,0.0,-999.0,80,-99.99,,,0.00,weatherlink.com 1.10,2013-02-02 13:11:00,
2013-02-02 07:26:00,41.1,35.0,30.23,South,175,0.0,-999.0,80,-99.99,,,0.00,weatherlink.com 1.10,2013-02-02 13:26:00,
2013-02-02 07:41:00,40.2,35.0,30.23,South,175,0.0,-999.0,81,-99.99,,,0.00,weatherlink.com 1.10,2013-02-02 13:41:00,
2013-02-02 07:56:00,40.4,35.0,30.23,South,175,0.0,-999.0,81,-99.99,,,0.00,weatherlink.com 1.10,2013-02-02 13:56:00,
2013-02-02 08:11:00,42.8,38.0,30.24,South,175,0.0,-999.0,82,-99.99,,,0.00,weatherlink.com 1.10,2013-02-02 14:11:00,
2013-02-02 08:26:00,44.8,40.0,30.23,South,175,0.0,-999.0,82,-99.99,,,0.00,weatherlink.com 1.10,2013-02-02 14:26:00,
2013-02-02 08:41:00,48.6,43.0,30.24,South,183,5.0,-999.0,82,-99.99,,,0.00,weatherlink.com 1.10,2013-02-02 14:41:00,
2013-02-02 08:56:00,50.9,45.0,30.24,South,177,0.0,-999.0,81,-99.99,,,0.00,weatherlink.com 1.10,2013-02-02 14:56:00,
2013-02-02 09:11:00,52.8,46.0,30.24,South,171,1.0,-999.0,79,-99.99,,,0.00,weatherlink.com 1.10,2013-02-02 15:11:00,
2013-02-02 09:26:00,54.9,48.0,30.25,SSW,192,2.0,-999.0,78,-99.99,,,0.00,weatherlink.com 1.10,2013-02-02 15:26:00,
2013-02-02 09:41:00,57.0,50.0,30.25,South,184,7.0,-999.0,76,-99.99,,,0.00,weatherlink.com 1.10,2013-02-02 15:41:00,
2013-02-02 09:56:00,59.9,52.0,30.25,SSW,198,6.0,-999.0,74,-99.99,,,0.00,weatherlink.com 1.10,2013-02-02 15:56:00,
2013-02-02 10:11:00,61.4,52.0,30.25,SSW,210,3.0,-999.0,72,-99.99,,,0.00,weatherlink.com 1.10,2013-02-02 16:11:00,
2013-02-02 10:26:00,62.6,53.0,30.25,SSW,204,6.0,-999.0,71,-99.99,,,0.00,weatherlink.com 1.10,2013-02-02 16:26:00,
2013-02-02 10:41:00,64.0,54.0,30.25,South,183,6.0,-999.0,69,-99.99,,,0.00,weatherlink.com 1.10,2013-02-02 16:41:00,
2013-02-02 10:56:00,65.5,55.0,30.25,West,265,2.0,-999.0,68,-99.99,,,0.00,weatherlink.com 1.10,2013-02-02 16:56:00,
2013-02-02 11:11:00,66.8,55.0,30.24,SW,225,8.0,-999.0,66,-99.99,,,0.00,weatherlink.com 1.10,2013-02-02 17:11:00,
2013-02-02 11:26:00,67.4,55.0,30.24,WSW,256,6.0,-999.0,65,-99.99,,,0.00,weatherlink.com 1.10,2013-02-02 17:26:00,
2013-02-02 11:41:00,67.4,55.0,30.23,SSW,200,10.0,-999.0,64,-99.99,,,0.00,weatherlink.com 1.10,2013-02-02 17:41:00,
2013-02-02 11:56:00,68.1,55.0,30.23,West,263,3.0,-999.0,64,-99.99,,,0.00,weatherlink.com 1.10,2013-02-02 17:56:00,
2013-02-02 12:11:00,68.0,54.0,30.23,WSW,255,6.0,-999.0,62,-99.99,,,0.00,weatherlink.com 1.10,2013-02-02 18:11:00,
2013-02-02 12:26:00,68.1,54.0,30.22,WSW,238,5.0,-999.0,62,-99.99,,,0.00,weatherlink.com 1.10,2013-02-02 18:26:00,
2013-02-02 12:41:00,68.2,55.0,30.21,WSW,248,2.0,-999.0,62,-99.99,,,0.00,weatherlink.com 1.10,2013-02-02 18:41:00,
2013-02-02 12:56:00,68.5,54.0,30.20,SW,220,1.0,-999.0,61,-99.99,,,0.00,weatherlink.com 1.10,2013-02-02 18:56:00,
2013-02-02 13:11:00,68.5,54.0,30.20,West,269,2.0,-999.0,61,-99.99,,,0.00,weatherlink.com 1.10,2013-02-02 19:11:00,
2013-02-02 13:26:00,69.3,55.0,30.19,SW,219,9.0,-999.0,60,-99.99,,,0.00,weatherlink.com 1.10,2013-02-02 19:26:00,
2013-02-02 13:41:00,70.2,55.0,30.18,WNW,292,7.0,-999.0,59,-99.99,,,0.00,weatherlink.com 1.10,2013-02-02 19:41:00,
2013-02-02 13:56:00,69.3,54.0,30.18,SW,236,2.0,-999.0,59,-99.99,,,0.00,weatherlink.com 1.10,2013-02-02 19:56:00,
2013-02-02 14:12:00,68.9,54.0,30.18,WSW,253,0.0,-999.0,60,-99.99,,,0.00,weatherlink.com 1.10,2013-02-02 20:12:00,
2013-02-02 14:27:00,69.5,54.0,30.18,West,265,0.0,-999.0,59,-99.99,,,0.00,weatherlink.com 1.10,2013-02-02 20:27:00,
2013-02-02 14:42:00,70.9,55.0,30.17,WSW,250,0.0,-999.0,58,-99.99,,,0.00,weatherlink.com 1.10,2013-02-02 20:42:00,
2013-02-02 14:57:00,70.1,54.0,30.17,NNW,342,3.0,-999.0,58,-99.99,,,0.00,weatherlink.com 1.10,2013-02-02 20:57:00,
2013-02-02 15:12:00,70.2,55.0,30.17,WNW,295,6.0,-999.0,59,-99.99,,,0.00,weatherlink.com 1.10,2013-02-02 21:12:00,
2013-02-02 15:27:00,70.0,54.0,30.17,NW,306,3.0,-999.0,58,-99.99,,,0.00,weatherlink.com 1.10,2013-02-02 21:27:00,
2013-02-02 15:42:00,69.2,54.0,30.17,West,279,2.0,-999.0,58,-99.99,,,0.00,weatherlink.com 1.10,2013-02-02 21:42:00,
2013-02-02 15:57:00,69.7,53.0,30.17,WSW,257,1.0,-999.0,56,-99.99,,,0.00,weatherlink.com 1.10,2013-02-02 21:57:00,
2013-02-02 16:12:00,69.2,53.0,30.17,WNW,297,0.0,-999.0,56,-99.99,,,0.00,weatherlink.com 1.10,2013-02-02 22:12:00,
2013-02-02 16:27:00,70.6,53.0,30.18,WNW,291,0.0,-999.0,54,-99.99,,,0.00,weatherlink.com 1.10,2013-02-02 22:27:00,
2013-02-02 16:42:00,70.1,53.0,30.18,NW,311,5.0,-999.0,55,-99.99,,,0.00,weatherlink.com 1.10,2013-02-02 22:42:00,
2013-02-02 16:57:00,69.3,52.0,30.18,West,281,3.0,-999.0,55,-99.99,,,0.00,weatherlink.com 1.10,2013-02-02 22:57:00,
2013-02-02 17:12:00,68.6,52.0,30.18,WNW,286,0.0,-999.0,55,-99.99,,,0.00,weatherlink.com 1.10,2013-02-02 23:12:00,
2013-02-02 17:27:00,68.1,51.0,30.18,WNW,291,2.0,-999.0,55,-99.99,,,0.00,weatherlink.com 1.10,2013-02-02 23:27:00,
2013-02-02 17:42:00,67.6,51.0,30.18,WNW,302,0.0,-999.0,56,-99.99,,,0.00,weatherlink.com 1.10,2013-02-02 23:42:00,
2013-02-02 17:57:00,66.7,50.0,30.19,WNW,302,0.0,-999.0,56,-99.99,,,0.00,weatherlink.com 1.10,2013-02-02 23:57:00,
2013-02-02 18:12:00,65.9,50.0,30.19,WNW,302,0.0,-999.0,57,-99.99,,,0.00,weatherlink.com 1.10,2013-02-03 00:12:00,
2013-02-02 18:27:00,63.9,49.0,30.20,WNW,302,0.0,-999.0,58,-99.99,,,0.00,weatherlink.com 1.10,2013-02-03 00:27:00,
2013-02-02 18:42:00,62.7,48.0,30.20,WNW,302,0.0,-999.0,60,-99.99,,,0.00,weatherlink.com 1.10,2013-02-03 00:42:00,
2013-02-02 18:57:00,62.1,48.0,30.20,WNW,302,0.0,-999.0,61,-99.99,,,0.00,weatherlink.com 1.10,2013-02-03 00:57:00,
2013-02-02 19:12:00,61.7,48.0,30.21,WNW,302,0.0,-999.0,62,-99.99,,,0.00,weatherlink.com 1.10,2013-02-03 01:12:00,
2013-02-02 19:27:00,61.3,48.0,30.21,WNW,302,0.0,-999.0,62,-99.99,,,0.00,weatherlink.com 1.10,2013-02-03 01:27:00,
2013-02-02 19:42:00,60.7,48.0,30.22,WNW,302,0.0,-999.0,63,-99.99,,,0.00,weatherlink.com 1.10,2013-02-03 01:42:00,
2013-02-02 19:57:00,60.0,47.0,30.23,WNW,302,0.0,-999.0,63,-99.99,,,0.00,weatherlink.com 1.10,2013-02-03 01:57:00,
2013-02-02 20:12:00,59.1,47.0,30.24,WNW,302,0.0,-999.0,64,-99.99,,,0.00,weatherlink.com 1.10,2013-02-03 02:12:00,
2013-02-02 20:27:00,58.5,47.0,30.24,WNW,302,0.0,-999.0,65,-99.99,,,0.00,weatherlink.com 1.10,2013-02-03 02:27:00,
2013-02-02 20:42:00,58.0,46.0,30.25,WNW,302,0.0,-999.0,65,-99.99,,,0.00,weatherlink.com 1.10,2013-02-03 02:42:00,
2013-02-02 20:57:00,58.0,46.0,30.25,WNW,302,0.0,-999.0,65,-99.99,,,0.00,weatherlink.com 1.10,2013-02-03 02:57:00,
2013-02-02 21:12:00,57.1,45.0,30.26,WNW,302,0.0,-999.0,65,-99.99,,,0.00,weatherlink.com 1.10,2013-02-03 03:12:00,
2013-02-02 21:27:00,56.5,45.0,30.26,WNW,302,0.0,-999.0,65,-99.99,,,0.00,weatherlink.com 1.10,2013-02-03 03:27:00,
2013-02-02 21:42:00,56.0,44.0,30.27,WNW,302,0.0,-999.0,65,-99.99,,,0.00,weatherlink.com 1.10,2013-02-03 03:42:00,
2013-02-02 21:57:00,55.5,43.0,30.27,WNW,302,0.0,-999.0,64,-99.99,,,0.00,weatherlink.com 1.10,2013-02-03 03:57:00,
2013-02-02 22:12:00,54.3,42.0,30.27,WNW,302,0.0,-999.0,64,-99.99,,,0.00,weatherlink.com 1.10,2013-02-03 04:12:00,
2013-02-02 22:27:00,53.4,42.0,30.27,WNW,302,0.0,-999.0,65,-99.99,,,0.00,weatherlink.com 1.10,2013-02-03 04:27:00,
2013-02-02 22:42:00,52.8,41.0,30.28,WNW,302,0.0,-999.0,65,-99.99,,,0.00,weatherlink.com 1.10,2013-02-03 04:42:00,
2013-02-02 22:57:00,52.4,41.0,30.28,WNW,302,0.0,-999.0,65,-99.99,,,0.00,weatherlink.com 1.10,2013-02-03 04:57:00,
2013-02-02 23:12:00,52.1,40.0,30.28,WNW,302,0.0,-999.0,64,-99.99,,,0.00,weatherlink.com 1.10,2013-02-03 05:12:00,
2013-02-02 23:27:00,51.7,40.0,30.28,WNW,302,0.0,-999.0,64,-99.99,,,0.00,weatherlink.com 1.10,2013-02-03 05:27:00,
2013-02-02 23:42:00,51.5,40.0,30.28,WNW,302,0.0,-999.0,64,-99.99,,,0.00,weatherlink.com 1.10,2013-02-03 05:42:00,
2013-02-02 23:57:00,51.2,39.0,30.28,WNW,302,0.0,-999.0,63,-99.99,,,0.00,weatherlink.com 1.10,2013-02-03 05:57:00,